Voltar ao catálogo

STARLINK-32675

AtivoComunicaçõesVLEO
NORAD 62208·PAYLOAD·🇺🇸 United States

Lançado Dec 4, 2024 de Cape Canaveral Space Force Station

Loading…

Próximas Passagens (próximas 24 horas)

TLE

AtualizadoSource: CelesTrak SupGP

Época: Sep 14, 2026, 20:38 UTC

1 62208C 24229S   26257.86020833 -.00005418  00000+0 -19622-3 0  2578
2 62208  43.0027 282.3431 0001771 272.9549  63.7035 15.27581203    12

Acompanhe STARLINK-32675 em tempo real com AllMySat

Download on the App Store